Find OneWeb SL0639

NORAD ID: 55803 Int'l Des: 2023-029 Owner: ONEWEBN Country: UK Constellation: oneweb operational
LEOCIRCULARPOLARONEWEB_TYPE

現在のビュー

3D地球を読み込み中...

About OneWeb SL0639

OneWeb SL0639 (NORAD 55803) is a oneweb constellation satellite launched Mar 9, 2023 by ONEWEBN of UK. It operates in LEO, CIRCULAR, POLAR, ONEWEB_TYPE orbit with a mass of 148.00 kg.

OneWeb SL0639について

説明を読み込み中...

次回通過

Passes for default location (London). Set your location on the main map for personalized predictions.

高度履歴

Loading altitude history...

軌道要素

1 55803U 23029H 26169.92733869 .00000022 00000-0 23481-4 0 9994
2 55803 87.9170 304.6291 0001384 129.8253 230.3002 13.19725390159135
Epoch: Jun 18, 2026 • Age: 6 hours

現在のステータス

高度 1187.6 km
速度 7.26 km/s
衛星直下点 3.08°N, 147.92°E
打ち上げ日 Mar 9, 2023
運用期間 3.2 years
タイプ internet

技術仕様

分類 Payload
質量 148.00 kg
乾燥質量 140.00 kg
総質量 148.00 kg
長さ 1.30 m
直径 1.00 m
スパン 5.00 m
形状 Trapezoid+2 pan
製造者 ONEWUS
バスタイプ ARROW
フェーズステータス In Orbit
所有者/国 ONEWEBN/UK

Most Searched